This is the latest recevied weather packets stored in our database for station/object N5LSN. If no packets are shown the sender has not sent any weather packets the latest 10 day(s).
| Time | Temp. | Humidity | Pressure | Rain* | Wind** | Luminosity | Snow |
|---|---|---|---|---|---|---|---|
| 1777682375 | 15.56° C | 74% | 1016.9 hPa | 0 mm | - | 5 W/m² | - |
| 1777682073 | 15.56° C | 73% | 1016.7 hPa | 0 mm | - | 6 W/m² | - |
| 1777681769 | 16.11° C | 72% | 1016.9 hPa | 0 mm | - | 6 W/m² | - |
| 1777681466 | 16.11° C | 72% | 1016.9 hPa | 0 mm | - | 12 W/m² | - |
| 1777681163 | 16.11° C | 70% | 1017 hPa | 0 mm | - | 20 W/m² | - |
| 1777680861 | 16.11° C | 69% | 1016.8 hPa | 0 mm | - | 20 W/m² | - |
| 1777680558 | 16.67° C | 69% | 1016.9 hPa | 0 mm | - | 25 W/m² | - |
| 1777680257 | 16.67° C | 68% | 1016.4 hPa | 0 mm | - | 31 W/m² | - |
| 1777679952 | 16.67° C | 68% | 1016.2 hPa | 0 mm | - | 35 W/m² | - |
| 1777679648 | 16.67° C | 67% | 1016 hPa | 0 mm | - | 49 W/m² | - |
| 1777679343 | 17.22° C | 66% | 1015.9 hPa | 0 mm | - | 72 W/m² | - |
| 1777679040 | 17.22° C | 66% | 1015.6 hPa | 0 mm | - | 68 W/m² | - |
| 1777678739 | 17.22° C | 66% | 1015.6 hPa | 0 mm | - | 77 W/m² | - |
| 1777678436 | 17.22° C | 66% | 1015.2 hPa | 0 mm | - | 71 W/m² | - |
| 1777678132 | 17.22° C | 66% | 1015.4 hPa | 0 mm | - | 61 W/m² | - |
| 1777677829 | 17.22° C | 65% | 1015.8 hPa | 0 mm | - | 52 W/m² | - |
| 1777677526 | 17.78° C | 64% | 1015.9 hPa | 0 mm | - | 59 W/m² | - |
| 1777677224 | 17.78° C | 64% | 1015.4 hPa | 0 mm | - | 101 W/m² | - |
| 1777676922 | 17.78° C | 63% | 1015.4 hPa | 0 mm | - | 88 W/m² | - |
| 1777676622 | 17.78° C | 62% | 1015 hPa | 0 mm | - | 116 W/m² | - |
| 1777676318 | 17.78° C | 62% | 1015.2 hPa | 0 mm | - | 122 W/m² | - |
| 1777676016 | 18.33° C | 60% | 1014.9 hPa | 0 mm | - | 129 W/m² | - |
| 1777675712 | 18.33° C | 60% | 1015 hPa | 0 mm | - | 141 W/m² | - |
| 1777675409 | 18.33° C | 61% | 1014.9 hPa | 0 mm | - | 150 W/m² | - |
| 1777675106 | 18.89° C | 58% | 1015.1 hPa | 0 mm | - | 150 W/m² | - |
* Rain latest hour (hover to see other rain measurements)
** Current wind speed in m/s (hover to see current wind gust speed)